Stations météo

réclame
Mon MeteoGroup
Bezier-Vias, France (7638): Température de l'air & dewpoint: 12.06.2018 13:00:00 - 18.06.2018 13:00:00 (CEST)Bezier-Vias, France (7638): Vitesse du vent & gusts: 12.06.2018 13:00:00 - 18.06.2018 13:00:00 (CEST)Bezier-Vias, France (7638): Direction du vent: 12.06.2018 13:00:00 - 18.06.2018 13:00:00 (CEST)Bezier-Vias, France (7638): reduced air pressure: 12.06.2018 13:00:00 - 18.06.2018 13:00:00 (CEST)Bezier-Vias, France (7638): visibility: 12.06.2018 13:00:00 - 18.06.2018 13:00:00 (CEST)Bezier-Vias, France (7638): Quantités de précipitations: 12.06.2018 13:00:00 - 18.06.2018 13:00:00 (CEST)
Date & Time tt [°C] td [°C] ff [km/h] ff [knt] fx [km/h] fx [knt] dd ppp [hPa] vv [km] rr [mm]
18.06.2018 13:00:00 - - - - - - - - - -
18.06.2018 12:00:00 24,9 11,5 26 14 51 27 NW 1021,0 15 0,0
18.06.2018 11:00:00 24,0 9,9 26 14 47 26 NNW 1021,1 12 0,0
18.06.2018 10:00:00 23,2 9,9 24 13 42 23 NW 1021,6 11 0,0
18.06.2018 09:00:00 21,5 8,7 27 15 40 22 WNW 1021,5 10 0,0
18.06.2018 08:00:00 20,2 10,0 21 11 34 18 NW 1021,3 10 0,0
18.06.2018 07:00:00 18,7 11,5 20 11 29 15 NW 1021,1 10 0,0
18.06.2018 06:00:00 17,1 11,6 14 7 22 12 NW 1021,2 25 0,0
18.06.2018 05:00:00 17,1 11,1 9 5 19 11 N 1021,2 32 0,0
18.06.2018 04:00:00 19,4 11,4 14 8 41 22 NW 1021,0 35 0,0
18.06.2018 03:00:00 19,0 11,3 14 8 37 20 NW 1020,8 38 0,0
18.06.2018 02:00:00 18,9 11,5 21 11 32 18 WNW 1021,2 25 0,0
18.06.2018 01:00:00 18,9 11,0 16 9 25 13 WNW 1021,5 41 0,0
18.06.2018 00:00:00 20,0 10,7 21 11 31 17 WNW 1021,6 38 0,0
17.06.2018 23:00:00 20,1 10,5 21 11 39 21 WNW 1021,3 39 0,0
17.06.2018 22:00:00 21,5 10,0 27 15 51 28 NW 1020,8 43 0,0
17.06.2018 21:00:00 22,5 9,3 29 16 47 26 NW 1020,3 27 0,0
17.06.2018 20:00:00 23,7 8,9 35 19 54 29 NNW 1019,4 18 0,0
17.06.2018 19:00:00 24,7 8,6 31 17 55 30 NNW 1019,0 24 0,0
17.06.2018 18:00:00 24,7 9,4 26 14 45 24 WNW 1019,2 28 0,0
17.06.2018 17:00:00 23,8 10,8 29 15 44 24 WNW 1019,6 29 0,0
17.06.2018 16:00:00 22,7 10,8 32 17 56 30 NNW 1019,8 20 0,0
17.06.2018 15:00:00 24,4 11,4 30 16 46 25 WNW 1019,6 16 0,0
17.06.2018 14:00:00 24,9 10,4 30 16 49 26 NW 1019,5 16 0,0
17.06.2018 13:00:00 25,5 10,1 31 17 49 26 NNW 1019,3 17 0,0
17.06.2018 12:00:00 24,4 9,5 30 16 51 28 NW 1019,6 19 0,0
17.06.2018 11:00:00 23,6 9,9 31 17 48 26 WNW 1019,6 20 0,0
17.06.2018 10:00:00 22,9 9,7 29 16 47 26 WNW 1019,9 19 0,0
17.06.2018 09:00:00 22,2 10,3 28 15 49 26 NW 1019,7 23 0,0
17.06.2018 08:00:00 19,9 11,1 20 11 32 17 W 1019,4 30 0,0
17.06.2018 07:00:00 16,6 11,5 14 8 19 11 WNW 1018,9 37 0,0
17.06.2018 06:00:00 15,0 10,6 10 5 24 13 WNW 1018,5 34 0,0
17.06.2018 05:00:00 14,8 9,8 11 6 16 9 WNW 1018,3 38 0,0
17.06.2018 04:00:00 16,3 9,9 9 5 19 10 NW 1018,2 41 0,0
17.06.2018 03:00:00 17,7 10,1 13 7 24 13 W 1018,2 43 0,0
17.06.2018 02:00:00 19,0 10,3 17 9 29 16 WNW 1018,1 36 0,0
17.06.2018 01:00:00 20,0 10,4 19 10 36 20 WNW 1017,9 39 0,0
17.06.2018 00:00:00 20,6 11,5 23 13 35 19 WNW 1017,7 40 0,0
16.06.2018 23:00:00 21,0 12,2 19 10 37 20 WNW 1017,3 41 0,0
16.06.2018 22:00:00 22,3 12,0 26 14 41 22 WNW 1016,5 42 0,0
16.06.2018 21:00:00 24,0 12,0 26 14 42 23 WNW 1015,6 36 0,0
16.06.2018 20:00:00 25,0 12,2 26 14 39 21 WNW 1014,9 59 0,0
16.06.2018 19:00:00 27,0 11,5 27 15 42 23 NW 1014,2 20 0,0
16.06.2018 18:00:00 27,2 12,8 28 15 46 25 WNW 1014,3 20 0,0
16.06.2018 17:00:00 26,6 12,3 31 17 49 26 NW 1014,5 19 0,0
16.06.2018 16:00:00 28,2 12,1 29 16 46 25 NW 1014,5 18 0,0
16.06.2018 15:00:00 28,8 10,9 24 13 44 24 NNW 1014,4 19 0,0
16.06.2018 14:00:00 27,9 11,0 24 13 48 26 NNW 1014,7 21 0,0
16.06.2018 13:00:00 27,2 10,8 24 13 46 25 NW 1014,8 23 0,0
16.06.2018 12:00:00 26,7 13,1 22 12 41 22 NNW 1014,9 24 0,0
16.06.2018 11:00:00 25,9 13,4 25 13 44 24 NW 1014,8 25 0,0
16.06.2018 10:00:00 24,5 12,8 26 14 43 23 NW 1015,0 26 0,0
16.06.2018 09:00:00 22,9 13,4 21 11 36 19 NW 1015,3 31 0,0
16.06.2018 08:00:00 20,2 14,8 13 7 24 13 W 1015,2 35 0,0
16.06.2018 07:00:00 17,8 14,9 17 9 29 15 W 1015,0 47 0,0
16.06.2018 06:00:00 16,8 14,6 14 8 23 12 W 1014,7 43 0,0
16.06.2018 05:00:00 17,2 14,7 15 8 24 13 W 1014,7 50 0,0
16.06.2018 04:00:00 17,5 14,8 14 7 30 16 W 1015,0 43 0,0
16.06.2018 03:00:00 18,1 14,8 22 12 36 19 W 1015,4 41 0,0
16.06.2018 02:00:00 18,7 14,4 20 11 33 18 W 1015,6 48 0,0
16.06.2018 01:00:00 19,1 13,9 20 11 31 17 W 1015,8 54 0,0
16.06.2018 00:00:00 19,3 13,0 13 7 25 13 W 1015,5 54 0,0
15.06.2018 23:00:00 20,6 12,8 20 11 35 19 WNW 1015,2 38 0,0
15.06.2018 22:00:00 21,3 12,4 19 10 40 22 WNW 1014,6 40 0,0
15.06.2018 21:00:00 22,5 12,1 29 15 44 24 WNW 1014,3 39 0,0
15.06.2018 20:00:00 23,8 12,4 29 15 52 28 WNW 1013,9 44 0,0
15.06.2018 19:00:00 25,8 12,6 31 17 49 27 WNW 1013,6 26 0,0
15.06.2018 18:00:00 25,8 11,9 34 19 54 29 NW 1013,5 32 0,0
15.06.2018 17:00:00 26,0 13,8 31 17 50 27 NW 1013,6 52 0,0
15.06.2018 16:00:00 23,5 14,2 29 16 53 29 WNW 1014,1 11 0,0
15.06.2018 15:00:00 26,0 12,8 31 17 54 29 NNW 1013,6 27 0,0
15.06.2018 14:00:00 26,2 11,1 29 16 49 26 NW 1013,8 29 0,0
15.06.2018 13:00:00 25,9 11,3 32 17 52 28 NNW 1014,1 34 0,0
15.06.2018 12:00:00 23,7 12,0 24 13 42 23 NW 1014,7 39 0,0
15.06.2018 11:00:00 22,3 13,6 19 10 30 16 W 1014,8 42 0,0
15.06.2018 10:00:00 20,9 13,1 17 9 32 17 W 1015,0 36 0,0
15.06.2018 09:00:00 20,2 13,2 18 10 32 17 W 1014,6 54 0,0
15.06.2018 08:00:00 19,9 12,6 21 11 32 17 W 1014,3 60 0,0
15.06.2018 07:00:00 18,5 12,3 14 8 30 16 WNW 1014,1 37 0,0
15.06.2018 06:00:00 19,0 11,8 18 10 27 15 NW 1014,0 38 0,0
15.06.2018 05:00:00 18,4 11,7 16 9 23 13 WNW 1014,2 43 0,0
15.06.2018 04:00:00 18,6 11,9 13 7 26 14 WNW 1014,3 45 0,0
15.06.2018 03:00:00 19,5 11,3 21 11 37 20 NW 1014,4 46 0,0
15.06.2018 02:00:00 19,7 11,5 21 11 30 16 NW 1014,7 46 0,0
15.06.2018 01:00:00 19,5 11,3 17 9 25 14 NW 1015,0 44 0,0
15.06.2018 00:00:00 18,2 10,8 13 7 25 13 WNW 1015,3 47 0,0
14.06.2018 23:00:00 20,7 10,2 19 10 33 18 NW 1015,1 48 0,0
14.06.2018 22:00:00 21,6 9,8 18 10 36 19 WNW 1014,5 53 0,0
14.06.2018 21:00:00 22,9 8,9 22 12 43 23 NW 1013,9 50 0,0
14.06.2018 20:00:00 24,6 8,1 29 16 50 27 NW 1013,4 14 0,0
14.06.2018 19:00:00 25,2 8,2 35 19 54 29 NW 1012,9 13 0,0
14.06.2018 18:00:00 26,0 7,6 35 19 61 33 NNW 1012,7 14 0,0
14.06.2018 17:00:00 26,8 8,2 35 19 58 32 NW 1012,9 16 0,0
14.06.2018 16:00:00 26,4 7,4 39 21 60 32 NW 1012,9 18 0,0
14.06.2018 15:00:00 26,0 7,1 35 19 57 31 NW 1013,2 19 0,0
14.06.2018 14:00:00 25,8 6,4 32 18 55 30 NNW 1013,5 22 0,0
14.06.2018 13:00:00 24,4 7,1 35 19 52 28 NW 1014,1 23 0,0
14.06.2018 12:00:00 23,0 7,5 31 17 59 32 WNW 1014,3 27 0,0
14.06.2018 11:00:00 21,4 6,9 37 20 60 33 NW 1014,2 32 0,0
14.06.2018 10:00:00 19,8 7,5 28 15 56 30 WNW 1014,8 17 0,0
14.06.2018 09:00:00 19,6 8,0 33 18 53 29 NNW 1014,9 20 0,0
14.06.2018 08:00:00 18,0 7,1 23 12 48 26 NW 1014,8 33 0,0
14.06.2018 07:00:00 16,6 7,5 22 12 37 20 NW 1014,6 36 0,0
14.06.2018 06:00:00 16,2 7,9 18 10 29 16 NW 1014,2 60 0,0
14.06.2018 05:00:00 15,5 7,8 17 9 30 16 NW 1014,2 60 0,0
14.06.2018 04:00:00 15,0 7,8 5 3 24 13 NNW 1014,5 59 0,0
14.06.2018 03:00:00 16,8 7,2 16 9 45 24 NW 1014,3 48 0,0
14.06.2018 02:00:00 18,4 7,2 28 15 44 24 NW 1014,0 48 0,0
14.06.2018 01:00:00 19,0 8,0 29 16 41 22 NW 1014,3 46 0,0
14.06.2018 00:00:00 19,0 9,2 23 12 36 20 NW 1014,3 45 0,0
13.06.2018 23:00:00 20,2 9,7 18 10 39 21 NW 1014,1 44 0,0
13.06.2018 22:00:00 21,6 9,2 25 14 51 27 NW 1013,1 44 0,0
13.06.2018 21:00:00 23,2 8,8 28 15 55 30 NW 1012,8 26 0,0
13.06.2018 20:00:00 24,6 7,7 36 20 67 36 NW 1012,2 23 0,0
13.06.2018 19:00:00 25,4 8,4 36 20 59 32 NW 1011,7 10 0,0
13.06.2018 18:00:00 25,5 7,1 39 21 65 35 NNW 1011,8 11 0,0
13.06.2018 17:00:00 25,4 7,0 36 20 69 38 NNW 1011,7 12 0,0
13.06.2018 16:00:00 26,6 8,5 43 23 75 40 NW 1011,2 14 0,0
13.06.2018 15:00:00 25,5 9,7 37 20 62 34 NW 1011,2 18 0,0
13.06.2018 14:00:00 25,5 10,5 35 19 63 34 NNW 1011,3 17 0,0
13.06.2018 13:00:00 24,2 11,5 34 19 63 34 NW 1011,3 19 0,0
13.06.2018 12:00:00 23,6 12,3 37 20 60 32 NW 1011,1 23 0,0
13.06.2018 11:00:00 23,7 13,3 34 18 64 35 NW 1010,9 24 0,0
13.06.2018 10:00:00 22,4 12,9 36 19 53 28 WNW 1010,9 29 0,0
13.06.2018 09:00:00 20,9 15,4 18 10 36 20 W 1011,4 31 0,0
13.06.2018 08:00:00 18,6 15,5 18 10 42 23 W 1011,3 39 0,0
13.06.2018 07:00:00 17,3 14,4 26 14 38 20 W 1011,0 35 0,0
13.06.2018 06:00:00 17,1 14,6 19 10 30 16 W 1010,9 40 0,0
13.06.2018 05:00:00 17,3 14,9 12 6 32 18 W 1011,0 40 0,0
13.06.2018 04:00:00 17,3 15,1 19 10 34 18 W 1010,8 19 0,2
13.06.2018 03:00:00 17,8 14,7 21 11 37 20 W 1011,0 37 0,0
13.06.2018 02:00:00 17,4 14,3 20 11 35 19 W 1011,3 39 0,0
13.06.2018 01:00:00 17,5 13,8 16 9 24 13 W 1011,6 32 0,0
13.06.2018 00:00:00 17,4 13,9 15 8 27 14 W 1011,5 42 0,0
12.06.2018 23:00:00 18,0 13,7 17 9 29 16 W 1011,3 36 0,0
12.06.2018 22:00:00 19,2 12,7 15 8 37 20 WNW 1010,3 52 0,0
12.06.2018 21:00:00 18,8 13,9 13 7 39 21 NW 1009,6 44 0,2
12.06.2018 20:00:00 21,5 12,9 19 10 38 20 NW 1009,0 33 0,0
12.06.2018 19:00:00 22,0 13,9 25 14 45 24 W 1008,4 21 0,0
12.06.2018 18:00:00 23,9 12,5 24 13 45 25 W 1008,2 25 0,0
12.06.2018 17:00:00 22,4 13,5 18 10 36 19 WSW 1008,7 30 0,0
12.06.2018 16:00:00 23,0 14,8 17 9 34 18 SW 1008,9 33 0,0
12.06.2018 15:00:00 22,6 13,1 16 9 31 17 S 1009,1 36 0,0
12.06.2018 14:00:00 23,2 13,1 18 10 27 15 S 1009,3 44 0,0
12.06.2018 13:00:00 23,6 13,2 10 5 21 11 S 1009,7 51 0,0

tt = Température de l'air
td = dewpoint
ff = Vitesse du vent
fx = gusts
dd = Direction du vent
ppp = reduced air pressure
vv = visibility
rr = Quantités de précipitations

stations d'obs. à proximité